Regional Weather Roundup
Issued by NWS

Home | Current Version | Previous Version | Graphics & Text | Print | Product List | Glossary On
Versions: 1 2 3 4 5 6 7 8 9 10 11 12 13 14 15 16 17 18 19 20 21 22 23 24 25 26 27 28 29 30 31 32 33 34 35 36 37 38 39 40 41 42 43 44 45 46 47 48 49 50
000
ASUS43 KLOT 220703
RWRIL

ILLINOIS REGIONAL WEATHER ROUNDUP
NATIONAL WEATHER SERVICE CHICAGO/ROMEOVILLE IL
100 AM CST MON JAN 22 2018

NOTE: "FAIR" INDICATES FEW OR NO CLOUDS BELOW 12,000 FEET WITH NO
SIGNIFICANT WEATHER AND/OR OBSTRUCTIONS TO VISIBILITY.

* THESE STATIONS ARE NOT UNDER NWS QUALITY CONTROL. THEY ALSO MAY NOT
  REPORT WEATHER SUCH AS PRECIPITATION OR FOG.

ILZ001-002-007-009-015-016-024-220800-
NORTHWEST ILLINOIS

CITY           SKY/WX    TMP DP  RH WIND       PRES   REMARKS
MOLINE         CLOUDY    51  51 100 SE9       29.66F FOG
STERLING*      LGT RAIN  45  45 100 SE6       29.71F VSB 1/4
SAVANNA*       CLOUDY    41  41  99 NE8       29.71F FOG
$$

ILZ003-004-008-010-011-017-018-220800-
NORTH CENTRAL ILLINOIS

CITY           SKY/WX    TMP DP  RH WIND       PRES   REMARKS
ROCKFORD       DRZL/FOG  41  41 100 E10       29.76F VSB 1/4
FREEPORT*      DRZL/FOG  37  37  99 NE8       29.75F VSB 1/2 WCI  31
ROCHELLE*      FOG       44  44 100 SE7       29.73F VSB 1/2
DE KALB*       DRZL/FOG  44  44 100 SE10      29.75F VSB 1/4
PERU*          DRZL/FOG  46  46  99 SE13      29.74F VSB 1/2
$$

ILZ005-006-012>014-019>023-220800-
NORTHEAST ILLINOIS

CITY           SKY/WX    TMP DP  RH WIND       PRES   REMARKS
CHICAGO-OHARE  FOG       45  43  93 SE5       29.78F VSB 1/8
CHICAGO-MIDWAY FOG       48  48 100 S3        29.79F VSB 1/4
AURORA         FOG       45  45 100 SE10      29.76F VSB 1/4
LANSING*       FOG       46  46 100 CALM      29.81F VSB 1
JOLIET*        FOG       47  47 100 SE5       29.78F VSB 1/4
WAUKEGAN       FOG       37  37 100 NE6       29.80F VSB 1/4 WCI  32
DUPAGE AIRPORT FOG       46  46 100 SE9       29.76F VSB 1/4
KANKAKEE*      LGT RAIN N/A N/A N/A SE7       29.80F
WHEELING       FOG       40  40 100 CALM      29.80F VSB 1/4
MORRIS*        FOG       46  46  99 SE7       29.76F VSB 1/4
NORTHERLY ISL    N/A     39  38  96 SE2         N/A
$$

LMZ740>746-220800-
SOUTHERN LAKE MICHIGAN

STATION/POSITION SKY/WX   TEMP    WIND        PRES    VSBY  WAVE
                          AIR SEA DIR/SP/G                  HT/PER
                          (F)     (DEG/KT/KT) (MB)    (MI)  (FT/S)
HARRISON CRIB              46     140/ 16/ 16   N/A
BURNHAM HARBOR             38     140/  2/  4   N/A
CALUMET HARBOR             45     120/  3/  4 1008.9F
BURNS HARBOR               48     160/ 10/ 14 1010.2F
MICHIGAN CITY              46     130/  6/  7   N/A
$$

ILZ025>027-034>036-040-047-049-050-058-095>099-220800-
WEST-CENTRAL ILLINOIS

CITY           SKY/WX    TMP DP  RH WIND       PRES   REMARKS
QUINCY         RAIN      53  52  96 SE13      29.64F FOG
GALESBURG*     DRIZZLE   51  51 100 SE9       29.68F
MACOMB*        RAIN      53  53  99 S13       29.69F
JACKSONVILLE*  RAIN      55  53  94 S13       29.68F
PITTSFIELD*    HVY RAIN  55  54  98 S3        29.69F
$$

ILZ028>032-037-038-041>044-048-051>054-059>061-220800-
CENTRAL ILLINOIS

CITY           SKY/WX    TMP DP  RH WIND       PRES   REMARKS
BLOOMINGTON    FOG       50  50 100 S16       29.76F VSB 1
DECATUR        MOCLDY    51  51 100 S15       29.76F
PEORIA         FOG       53  53 100 S10       29.71F VSB 1
LACON*         CLOUDY    50  50 100 S10G16    29.71F FOG
LINCOLN*       CLOUDY    53  53 100 S9        29.73F FOG
SPRINGFIELD    LGT RAIN  55  54  96 S18       29.71F
TAYLORVILLE    CLOUDY    53  52  95 S12       29.73F
$$

ILZ033-039-045-046-055>057-062-063-220800-
EAST-CENTRAL ILLINOIS

CITY           SKY/WX    TMP DP  RH WIND       PRES   REMARKS
CHAMPAIGN      CLOUDY    50  49  96 S17       29.78F
DANVILLE*      HVY RAIN  50  50 100 S12       29.79F
RANTOUL*       CLOUDY    48  48 100 S7        29.79F FOG
MATTOON        CLOUDY    50  49  96 S12       29.79F
$$

ILZ079-100>102-220800-
SOUTHWEST ILLINOIS

CITY           SKY/WX    TMP DP  RH WIND       PRES   REMARKS
ALTON          CLOUDY    54  53  99 SE10      29.70F
BELLEVILLE     FAIR      55  51  88 S10       29.70F
CAHOKIA*       MOCLDY    56  52  86 SE16G25   29.68F
SPARTA*        FAIR      56  52  85 S12G20    29.75F
$$

ILZ064>066-069>071-074>076-080>082-084>086-088>090-092>094-220800-
SOUTH-CENTRAL ILLINOIS

CITY           SKY/WX    TMP DP  RH WIND       PRES   REMARKS
CARBONDALE     MOCLDY    57  49  74 S18G28    29.78F
CAIRO*         FAIR      56  47  69 S16G22    29.81F
EFFINGHAM*     CLOUDY    52  51  97 SE9       29.81F
MARION         MOCLDY    56  49  77 S13G20    29.81F
MT. VERNON     FAIR      56  48  74 S12       29.80F
CENTRALIA*     CLOUDY    56  50  82 SE14      29.77F
SALEM*         CLOUDY    55  50  84 SE6       29.79F
METROPOLIS*    FAIR      59  46  63 SE9G16    29.85F
$$

ILZ067-068-072-073-078-083-087-091-220800-
SOUTHEAST ILLINOIS

CITY           SKY/WX    TMP DP  RH WIND       PRES   REMARKS
LAWRENCEVILLE  MOCLDY    48  44  86 S9        29.86F
FLORA*         FAIR      51  48  91 SE12      29.82F
FAIRFIELD*     MOCLDY    54  48  81 S9        29.82F
HARRISBURG*    CLOUDY    53  50  90 SE10      29.84F
ROBINSON*      CLOUDY    51  47  85 S10       29.86F
CARMI*         RAIN      49  45  87 S10       29.86F
$$

ABBREVIATIONS USED IN REMARKS
   TC - TEMPERATURE IN CELSIUS
  WCI - WIND CHILL INDEX
   HX - HEAT INDEX
  VSB - VISIBILITY
$$




USA.gov is the U.S. government's official web portal to all federal, state and local government web resources and services.